SCP
0 0 -0 -0 -0 0 0 0 -0 -0 -0 -0 -0 0 0 0 0 0 0 0 0 0
0 0 -0 -0 -0 -0 0 0 0 0 -0 -0 -0 -0 0 0 0 0 0 0 0 0
0 0 0 -0 -0 -0 -0 0 0 0 -0 -0 -0 -0 -0 0 0 0 0 0 0 0
0 0 0 0 0 0 0 0 0 0 -0 -0 -0 0 -0 0 0 0 0 0 0 0
0 0 0 0 0 0 0 0 0 0 0 -0 -0 0 -0 -0 0 0 0 0 0 0
0 0 0 0 0 0 0 0 0 0 0 -0 -0 -0 0 -0 0 0 0 0 0 0
0 0 0 0 0 0 0 0 0 0 0 0 -0 -0 0 -0 0 0 0 0 0 0
0 0 0 0 0 0 0 0 0 -0 -0 0 0 -0 0 -0 0 0 0 0 0 0
0 0 -0 -0 0 0 -0 -0 0 0 0 -0 -0 0 0 0 0 0 0 0 0 0
0 0 0 0 0 0 -0 -0 0 0 0 -0 -0 0 0 0 0 0 0 0 0 0
0 0 0 0 0 0 -0 -0 0 0 0 0 -0 -0 0 0 0 -0 0 0 0 0
0 0 0 0 0 0 0 -0 0 0 0 0 0 -0 0 0 0 0 0 0 0 0
0 0 0 0 0 0 0 0 0 0 0 0 0 0 0 0 0 0 0 0 0 0
0 0 0 0 -0 0 0 0 0 0 0 0 0 0 0 0 0 0 0 0 0 0
Wind_Speed_500mb
86 83 85 87 89 85 63 69 77 83 82 67 72 89 77 100 102 122 134 134 140 116
91 88 86 84 89 96 87 59 72 79 80 72 67 51 52 30 121 108 123 121 134 127
98 86 93 92 88 85 91 80 62 77 82 84 70 56 70 96 71 133 114 124 134 128
83 103 85 80 86 82 78 78 65 53 78 76 70 58 59 62 68 106 120 118 137 140
105 87 89 92 76 75 79 78 75 58 50 67 62 65 49 72 72 117 120 124 133 143
101 90 88 84 86 85 77 76 78 69 51 53 60 69 57 48 69 81 129 133 140 137
104 99 93 83 84 83 67 69 74 86 75 47 55 66 63 48 73 47 118 122 133 137
103 99 93 91 82 68 63 71 81 84 95 81 67 73 59 55 57 61 116 119 137 142
103 99 91 87 81 70 63 71 75 74 84 100 84 82 77 64 58 82 96 133 124 139
95 96 98 91 86 85 81 60 74 71 72 89 96 96 91 75 62 75 83 132 136 127
103 98 97 92 85 82 79 70 58 75 65 62 73 84 86 72 66 80 73 131 138 145
103 101 95 89 82 76 75 68 63 65 52 51 61 75 74 69 67 81 88 139 128 142
92 86 89 85 80 73 68 64 58 54 57 45 55 66 66 64 67 66 107 131 123 131
93 95 92 91 86 76 68 53 51 54 57 50 52 59 54 61 64 72 109 127 136 119
Wind_Direction_500mb
311 311 307 290 290 290 305 293 286 291 296 294 287 269 295 223 200 191 201 201 201 199
314 310 308 305 292 287 284 301 286 283 287 299 286 256 269 286 210 212 199 205 204 196
313 308 303 305 300 294 279 281 299 282 287 296 298 295 263 271 253 206 204 198 202 192
310 309 307 303 301 301 282 274 281 285 276 279 283 286 248 263 239 211 198 199 195 198
314 312 300 303 304 299 298 274 269 271 284 272 279 287 255 242 266 204 208 199 194 197
318 311 306 297 296 288 294 288 260 257 272 276 277 280 265 266 244 211 197 196 195 196
316 313 309 305 302 292 293 295 278 254 256 262 268 270 268 259 235 264 208 205 205 202
314 312 308 307 306 296 296 287 294 268 248 251 253 265 273 261 250 260 201 200 207 206
313 312 310 308 304 296 289 286 296 281 256 249 250 259 264 274 265 235 214 198 206 202
317 311 309 306 302 299 287 283 284 284 265 252 247 253 261 273 259 232 216 199 195 197
319 314 309 304 300 296 291 279 279 282 269 254 250 253 258 268 259 226 235 204 204 201
320 319 316 312 311 307 296 280 267 276 261 251 252 250 256 256 258 228 217 202 208 207
333 331 326 323 318 313 304 286 268 269 253 259 251 249 254 250 233 230 205 194 203 211
342 339 328 318 312 311 307 286 272 267 252 252 250 255 250 249 227 223 196 203 203 210
Wind_Speed_850mb
86 83 85 87 89 85 63 69 77 83 82 67 72 89 77 100 102 122 134 134 140 116
91 88 86 84 89 96 87 59 72 79 80 72 67 51 52 30 121 108 123 121 134 127
98 86 93 92 88 85 91 80 62 77 82 84 70 56 70 96 71 133 114 124 134 128
83 103 85 80 86 82 78 78 65 53 78 76 70 58 59 62 68 106 120 118 137 140
105 87 89 92 76 75 79 78 75 58 50 67 62 65 49 72 72 117 120 124 133 143
101 90 88 84 86 85 77 76 78 69 51 53 60 69 57 48 69 81 129 133 140 137
104 99 93 83 84 83 67 69 74 86 75 47 55 66 63 48 73 47 118 122 133 137
103 99 93 91 82 68 63 71 81 84 95 81 67 73 59 55 57 61 116 119 137 142
103 99 91 87 81 70 63 71 75 74 84 100 84 82 77 64 58 82 96 133 124 139
95 96 98 91 86 85 81 60 74 71 72 89 96 96 91 75 62 75 83 132 136 127
103 98 97 92 85 82 79 70 58 75 65 62 73 84 86 72 66 80 73 131 138 145
103 101 95 89 82 76 75 68 63 65 52 51 61 75 74 69 67 81 88 139 128 142
92 86 89 85 80 73 68 64 58 54 57 45 55 66 66 64 67 66 107 131 123 131
93 95 92 91 86 76 68 53 51 54 57 50 52 59 54 61 64 72 109 127 136 119
Wind_Direction_850mb
311 311 307 290 290 290 305 293 286 291 296 294 287 269 295 223 200 191 201 201 201 199
314 310 308 305 292 287 284 301 286 283 287 299 286 256 269 286 210 212 199 205 204 196
313 308 303 305 300 294 279 281 299 282 287 296 298 295 263 271 253 206 204 198 202 192
310 309 307 303 301 301 282 274 281 285 276 279 283 286 248 263 239 211 198 199 195 198
314 312 300 303 304 299 298 274 269 271 284 272 279 287 255 242 266 204 208 199 194 197
318 311 306 297 296 288 294 288 260 257 272 276 277 280 265 266 244 211 197 196 195 196
316 313 309 305 302 292 293 295 278 254 256 262 268 270 268 259 235 264 208 205 205 202
314 312 308 307 306 296 296 287 294 268 248 251 253 265 273 261 250 260 201 200 207 206
313 312 310 308 304 296 289 286 296 281 256 249 250 259 264 274 265 235 214 198 206 202
317 311 309 306 302 299 287 283 284 284 265 252 247 253 261 273 259 232 216 199 195 197
319 314 309 304 300 296 291 279 279 282 269 254 250 253 258 268 259 226 235 204 204 201
320 319 316 312 311 307 296 280 267 276 261 251 252 250 256 256 258 228 217 202 208 207
333 331 326 323 318 313 304 286 268 269 253 259 251 249 254 250 233 230 205 194 203 211
342 339 328 318 312 311 307 286 272 267 252 252 250 255 250 249 227 223 196 203 203 210